Location: Lachaise
(45.8833°N, 1.8500°E)
Time: 04:55:29
(UTC+00:00)

Cosmos 2150 Rocket - Pass Details

Date: 07 June 2020
Orbit: 750 x 807 km, 74.0° (Epoch: 14 July)

Event Time Altitude Azimuth Distance (km) Brightness Sun altitude
Rises 01:23:48 0° 335° (NNW) 3,216 7.9 -18.2°
Reaches altitude 10° 01:26:12 10° 333° (NNW) 2,283 7.0 -18.0°
Maximum altitude 01:31:18 65° 252° (WSW) 827 3.9 -17.7°
Enters shadow 01:33:56 28° 180° (S) 1,375 4.8 -17.5°
